TimeEST,TemperatureF,Dew PointF,Humidity,Sea Level PressureIn,VisibilityMPH,Wind Direction,Wind SpeedMPH,Gust SpeedMPH,PrecipitationIn,Events,Conditions,WindDirDegrees,DateUTC
12:53 AM,52.0,43.0,71,30.07,7.0,East,3.5,-,N/A,,Overcast,100,2012-11-10 05:53:00
1:53 AM,52.0,43.0,71,30.06,8.0,ESE,4.6,-,N/A,,Overcast,110,2012-11-10 06:53:00
2:53 AM,52.0,43.0,71,30.08,7.0,ESE,4.6,-,N/A,,Overcast,110,2012-11-10 07:53:00
3:53 AM,52.0,43.0,71,30.08,6.0,ESE,3.5,-,N/A,,Haze,110,2012-11-10 08:53:00
4:53 AM,52.0,43.0,71,30.07,6.0,SE,4.6,-,N/A,,Haze,130,2012-11-10 09:53:00
5:53 AM,52.0,43.0,71,30.08,6.0,ESE,3.5,-,N/A,,Haze,120,2012-11-10 10:53:00
6:53 AM,52.0,43.0,71,30.08,7.0,SE,4.6,-,N/A,,Overcast,140,2012-11-10 11:53:00
7:53 AM,52.0,43.0,71,30.08,6.0,SE,5.8,-,N/A,,Haze,140,2012-11-10 12:53:00
8:40 AM,53.6,42.8,67,30.08,8.0,SSE,5.8,-,N/A,,Overcast,160,2012-11-10 13:40:00
8:53 AM,53.1,43.0,69,30.09,8.0,SSE,6.9,-,N/A,,Overcast,150,2012-11-10 13:53:00
9:53 AM,55.9,44.1,64,30.07,9.0,SSE,5.8,-,N/A,,Mostly Cloudy,160,2012-11-10 14:53:00
10:23 AM,55.4,44.6,67,30.05,9.0,SE,6.9,-,N/A,,Partly Cloudy,140,2012-11-10 15:23:00
10:53 AM,57.0,45.0,64,30.06,9.0,South,12.7,-,N/A,,Clear,180,2012-11-10 15:53:00
11:53 AM,61.0,46.0,58,30.05,10.0,South,11.5,-,N/A,,Clear,180,2012-11-10 16:53:00
12:53 PM,63.0,46.9,56,30.02,10.0,South,12.7,-,N/A,,Mostly Cloudy,190,2012-11-10 17:53:00
1:53 PM,62.1,46.9,58,30.01,10.0,South,12.7,-,N/A,,Overcast,190,2012-11-10 18:53:00
2:53 PM,62.1,46.0,56,29.99,10.0,South,9.2,-,N/A,,Partly Cloudy,180,2012-11-10 19:53:00
3:53 PM,62.1,46.9,58,29.99,10.0,South,11.5,-,N/A,,Mostly Cloudy,180,2012-11-10 20:53:00
4:53 PM,60.1,50.0,69,29.94,9.0,South,23.0,32.2,0.00,Rain,Light Rain,190,2012-11-10 21:53:00
5:53 PM,64.0,50.0,60,29.89,10.0,South,21.9,36.8,0.00,,Scattered Clouds,170,2012-11-10 22:53:00
6:53 PM,64.0,50.0,60,29.97,10.0,South,21.9,28.8,N/A,,Clear,190,2012-11-10 23:53:00
7:53 PM,64.0,48.0,56,29.99,10.0,South,15.0,24.2,N/A,,Clear,190,2012-11-11 00:53:00
8:53 PM,62.1,46.9,58,30.01,10.0,South,11.5,-,N/A,,Clear,180,2012-11-11 01:53:00
9:53 PM,63.0,46.0,54,30.00,10.0,SSW,17.3,25.3,N/A,,Clear,200,2012-11-11 02:53:00
10:53 PM,60.8,46.4,59,30.00,10.0,South,17.3,25.3,N/A,,Clear,190,2012-11-11 03:53:00
11:53 PM,59.0,46.0,62,30.00,10.0,South,12.7,-,N/A,,Clear,190,2012-11-11 04:53:00